Regional Weather Roundup
Issued by NWS Jackson, KY

Home | Current Version | Previous Version | Graphics & Text | Print | Product List | Glossary On
Versions: 1 2 3 4 5 6 7 8 9 10 11 12 13 14 15 16 17 18 19 20 21 22 23 24 25 26 27 28 29 30 31 32 33 34 35 36 37 38 39 40 41 42 43 44 45 46 47 48 49 50
000
ASUS43 KJKL 250305
RWRJKL

EAST KENTUCKY HOURLY WEATHER ROUNDUP
NATIONAL WEATHER SERVICE JACKSON KY
1100 PM EDT THU APR 24 2014

NOTE: "FAIR" INDICATES FEW OR NO CLOUDS BELOW 12,000 FEET WITH
NO SIGNIFICANT WEATHER AND/OR OBSTRUCTIONS TO VISIBILITY.

* THESE REPORTS ARE NOT UNDER NWS QUALITY CONTROL AND MAY NOT
  REPORT WEATHER SUCH AS PRECIPITATION AND FOG.

KYZ079-080-083-085-087-088-110-112-115-119-120-250400
...EASTERN KENTUCKY...

CITY           SKY/WX    TMP DP  RH WIND       PRES   REMARKS
JACKSON        MOCLDY    64  30  27 E7        29.85F
LONDON         PTCLDY    66  35  31 CALM      29.83F
SOMERSET*      MOCLDY    64  32  29 CALM      29.83F
WILLIAMSBURG*    N/A    N/A N/A N/A S12         N/A
MIDDLESBORO*   CLEAR     56  43  63 CALM      29.87F
HARLAN APT*    PTCLDY    61  32  33 CALM      29.88F
BLACK MTN*       N/A     57  34  41 E2          N/A
PIKEVILLE APT* CLEAR     64  30  27 SE3       29.87F
BIG SANDY*     PTCLDY    60  32  35 E5        29.86F
$$

KYZ035-036-041-042-044-050-067-078-099-250400
...CENTRAL KENTUCKY...

CITY           SKY/WX    TMP DP  RH WIND       PRES   REMARKS
MT STERLING*   PTCLDY    61  34  36 SE6       29.83F
FLEMING/MASON* CLEAR     57  28  32 SE9       29.83F
DANVILLE*      PTCLDY    55  43  62 CALM      29.81F
RICHMOND*      PTCLDY    63  36  36 S5        29.81S
LEXINGTON      MOCLDY    64  36  35 SE10      29.80F
FRANKFORT      PTCLDY    57  39  51 E6        29.76F
$$

KYZ091>093-OHZ055-061-077-WVZ005-015-034-035-042-250400
...SOUTHERN OHIO/WEST VIRGINIA...

CITY           SKY/WX    TMP DP  RH WIND       PRES   REMARKS
COVINGTON      CLOUDY    62  28  27 E12       29.79F
COLUMBUS       PTCLDY    56  24  29 E10       29.87F
DAYTON         CLOUDY    57  25  29 SE14      29.83F
WILMINGTON     PTCLDY    54  24  31 E7        29.83F
HUNTINGTON     PTCLDY    57  22  25 E6        29.85F
CHARLESTON     CLOUDY    58  26  29 NE3       29.87F
PINEVILLE*     MOCLDY    56  41  58 MISG      29.96R
BECKLEY        CLOUDY    60  34  37 SE8       29.94S
BLUEFIELD      MOCLDY    61  34  36 S7G18     29.97S
$$

VAZ002-007-008-TNZ017-027-036-066-071-250400
...SOUTHWEST VIRGINIA/EAST TENNESSEE...

CITY           SKY/WX    TMP DP  RH WIND       PRES   REMARKS
WISE*          PTCLDY    63  21  20 S6        29.95S
ABINGDON*      CLEAR     63  33  32 CALM      29.95S
BRISTOL        PTCLDY    65  35  33 VRB5      29.94R
KNOXVILLE      MOCLDY    61  41  47 E5        29.86F
OAK RIDGE      MOCLDY    70  45  40 S3        29.86F
CROSSVILLE     PTCLDY    65  43  44 VRB5      29.88F
NASHVILLE      CLOUDY    71  51  49 S13       29.75F
$$

...KEY TO REMARKS...
VSB - VISIBILITY IN MILES
WCI - WIND CHILL INDEX
HX  - HEAT INDEX

$$



USA.gov is the U.S. government's official web portal to all federal, state and local government web resources and services.